Location: Dammartin
(48.9032°N, 1.6195°E)
Time: 07:52:09
(UTC+00:00)

SO-50 - Pass Details

Date: 14 December 2023
Orbit: 607 x 661 km, 64.6° (Epoch: 24 February)

Event Time Altitude Azimuth Distance (km) Brightness Sun altitude
Exits shadow 06:34:16 - 333° (NNW) 2,309 ? -10.1°
Reaches altitude 10° 06:35:22 10° 343° (NNW) 2,030 ? -9.9°
Maximum altitude 06:38:07 15° 20° (NNE) 1,682 ? -9.5°
Drops below altitude 10° 06:40:51 10° 57° (ENE) 2,005 ? -9.1°
Sets 06:43:59 0° 80° (E) 2,897 ? -8.7°
